Logan, UT

9:06 PM MST on November 19, 2019 (GMT -0700)
Logan-Cache

Weather History for KLGU - August, 2019

Change the Weather History Date:

Saturday, August 10, 2019

  Actual Average Record
Temperature  
Mean Temperature 72 °F -  
Max Temperature 91 °F 90 °F 100 °F (1972)
Min Temperature 54 °F 53 °F 39 °F (2002)
Cooling Degree Days 6    
Growing Degree Days 22 (Base 50)    
Moisture  
Dew Point 45 °F    
Average Humidity 46    
Maximum Humidity 86    
Minimum Humidity 15    
Precipitation  
Precipitation 0.00 in - - ()
Sea Level Pressure  
Sea Level Pressure 29.83 in    
Wind  
Wind Speed 6 mph (SW)    
Max Wind Speed 17 mph    
Max Gust Speed 23 mph    
Visibility 10 miles    
Events Thunderstorm    
Averages and records for this station are not official NWS values.
T = Trace of Precipitation, MM = Missing Value Source: NWS Daily Summary

Daily Weather History Graph

Daily Weather History Graph

Search for Another Location

Airport or City:

Astronomy

Aug. 10, 2019 Rise Set
Actual Time 6:30 AM MDT 8:34 PM MDT
Civil Twilight 5:59 AM MDT 9:04 PM MDT
Nautical Twilight 5:22 AM MDT 9:42 PM MDT
Astronomical Twilight 4:41 AM MDT 10:22 PM MDT
Moon 5:22 PM MDT (8/10) 2:08 AM MDT (8/10)
Length of Visible Light 15h 04m
Length of Day
14h 04m
Waxing Gibbous, 80% of the Moon is Illuminated
Aug 10
Waxing Gibbous
Aug 15
Full
Aug 23
Last Quarter
Aug 30
New
Sep 5
First Quarter

Hourly Weather History & Observations

Time (MDT) Temp. Dew Point Humidity Pressure Visibility Wind Dir Wind Speed Gust Speed Precip Events Conditions
12:51 AM 61.0 °F 53.1 °F 75% 29.81 in 10.0 mi North 4.6 mph - N/A   Clear
1:51 AM 61.0 °F 51.1 °F 70% 29.82 in 10.0 mi Calm Calm - N/A   Clear
2:51 AM 59.0 °F 50.0 °F 72% 29.82 in 10.0 mi WSW 6.9 mph - N/A   Clear
3:51 AM 54.0 °F 50.0 °F 86% 29.83 in 10.0 mi NNW 5.8 mph - N/A   Clear
4:51 AM 57.9 °F 52.0 °F 81% 29.84 in 10.0 mi NNE 10.4 mph - N/A   Clear
5:51 AM 55.0 °F 50.0 °F 83% 29.88 in 10.0 mi WSW 9.2 mph - N/A   Clear
6:51 AM 55.9 °F 50.0 °F 80% 29.90 in 10.0 mi SSE 5.8 mph - N/A   Clear
7:51 AM 57.9 °F 51.1 °F 78% 29.90 in 10.0 mi ENE 3.5 mph - N/A   Clear
8:51 AM 63.0 °F 52.0 °F 67% 29.91 in 10.0 mi Calm Calm - N/A   Clear
9:51 AM 69.1 °F 50.0 °F 51% 29.89 in 10.0 mi Calm Calm - N/A   Clear
10:22 AM 69.1 °F 48.9 °F 49% 30.03 in 10.0 mi Calm Calm - N/A Thunderstorm Clear
10:37 AM 69.1 °F 50.0 °F 51% 30.03 in 10.0 mi NNW 4.6 mph - N/A   Clear
10:51 AM 71.1 °F 50.0 °F 47% 29.89 in 10.0 mi Calm Calm - N/A   Clear
11:51 AM 77.0 °F 50.0 °F 39% 29.87 in 10.0 mi NW 3.5 mph - N/A   Clear
12:51 PM 84.0 °F 44.1 °F 25% 29.84 in 10.0 mi SW 6.9 mph - N/A   Clear
1:51 PM 88.0 °F 36.0 °F 16% 29.81 in 10.0 mi SW 16.1 mph 20.7 mph N/A   Clear
2:51 PM 89.1 °F 35.1 °F 15% 29.80 in 10.0 mi SW 17.3 mph 23.0 mph N/A   Clear
3:51 PM 89.1 °F 37.0 °F 16% 29.78 in 10.0 mi SW 11.5 mph 18.4 mph N/A   Clear
4:51 PM 89.1 °F 37.9 °F 16% 29.76 in 10.0 mi SW 12.7 mph - N/A   Clear
5:51 PM 88.0 °F 36.0 °F 16% 29.75 in 10.0 mi WSW 6.9 mph - N/A   Clear
6:51 PM 88.0 °F 34.0 °F 15% 29.73 in 10.0 mi Calm Calm - N/A   Clear
7:51 PM 88.0 °F 37.0 °F 16% 29.73 in 10.0 mi NE 4.6 mph - N/A   Clear
8:51 PM 78.1 °F 42.1 °F 28% 29.74 in 10.0 mi ESE 5.8 mph - N/A   Clear
9:51 PM 75.0 °F 45.0 °F 34% 29.75 in 10.0 mi SSW 5.8 mph - N/A   Clear
10:51 PM 73.9 °F 44.1 °F 34% 29.75 in 10.0 mi SSE 10.4 mph - N/A   Clear
11:51 PM 73.9 °F 45.0 °F 35% 29.74 in 10.0 mi South 9.2 mph - N/A   Clear